Content
SEND FEEDBACK

Daily
Averages
Monthly
Summary
Mexico

LAS GAVIOTAS, NAYARIT


Home > North America > Mexico > Nayarit
Elevation: 184 feet     Latitude: 20 53N     Longitude: 105 08W

WEATHER
 
SELECT A DAY
Number of Records: 164,205;   Date Range: 1/1/95 - 9/30/14
 
SHARE

PRINT THIS DATA

[ ← Previous Day ]
WEATHER ALMANAC - FEBRUARY 13, 2013
[ Next Day → ]
[ °C ]   °F
Weather ElementAverageHighLow
Temperature73.3 °F78.8 °F (11:53 am)69.8 °F (3:45 am)
Dewpoint61.9 °F64.4 °F (11:53 am)60.8 °F (2:43 am)
Humidity67.9 %78 % (4:44 am)57 % (10:45 am)
Barometer29.93 in29.97 in (9:41 am)29.89 in (5:49 pm)
Wind Speed6.4 mph16.1 mph (1:49 pm)
Weather ElementAverage
Visibility12.2 mi
Wind DirectionSE (136.8 °)

Weather ElementTotal
Precipitation---
Cooling Degree Days9.3 (Base 65)
Growing Degree Days24.3 (Base 50)
Averaged from 22 records on February 13, 2013
WEATHER CONDITIONS BREAKOUT
WIND DIRECTION BREAKOUT
WEATHER BY HOUR - FEBRUARY 13, 2013
[ °C ]   °F
Local TimeTemperatureDewpointHumidityBarometerVisibilityWind DirectionWind SpeedGust SpeedPrecipitationEventsConditions
1:45 AM71.6 °F62.6 °F73 %29.96 in8.0 miNorth (360°)4.6 mphOvercast
2:43 AM71.6 °F60.8 °F69 %29.95 in8.0 miNorth (10°)4.6 mphOvercast
3:45 AM69.8 °F60.8 °F73 %29.93 in10.0 miNorth (360°)4.6 mphMostly Cloudy
4:44 AM69.8 °F62.6 °F78 %29.93 in10.0 miCalmMostly Cloudy
5:50 AM69.8 °F62.6 °F78 %29.91 in10.0 miNNE (20°)4.6 mphMostly Cloudy
6:44 AM69.8 °F60.8 °F73 %29.92 in10.0 miNorth (360°)4.6 mphMostly Cloudy
7:46 AM69.8 °F62.6 °F78 %29.93 in15.0 miNorth (10°)5.8 mphMostly Cloudy
8:46 AM71.6 °F60.8 °F69 %29.95 in15.0 miNorth (360°)5.8 mphScattered Clouds
9:41 AM75.2 °F60.8 °F61 %29.97 in15.0 miNorth (10°)6.9 mphScattered Clouds
10:45 AM77.0 °F60.8 °F57 %29.97 in15.0 miCalmScattered Clouds
11:53 AM78.8 °F64.4 °F61 %29.96 in15.0 miCalmPartly Cloudy
12:47 PM77.0 °F62.6 °F61 %29.95 in15.0 miSouth (190°)12.7 mphScattered Clouds
1:49 PM78.8 °F62.6 °F57 %29.93 in15.0 miSSW (200°)16.1 mphScattered Clouds
2:48 PM78.8 °F62.6 °F57 %29.92 in15.0 miSSW (200°)13.8 mphScattered Clouds
3:47 PM77.0 °F62.6 °F61 %29.91 in12.0 miSouth (190°)11.5 mphMostly Cloudy
4:46 PM75.2 °F62.6 °F65 %29.90 in15.0 miSSW (210°)8.1 mphMostly Cloudy
5:49 PM73.4 °F62.6 °F69 %29.89 in15.0 miSouth (180°)11.5 mphMostly Cloudy
6:45 PM73.4 °F62.6 °F69 %29.90 in10.0 miSSE (150°)9.2 mphOvercast
7:49 PM73.4 °F62.6 °F69 %29.92 in10.0 miSouth (170°)5.8 mphOvercast
8:49 PM71.6 °F60.8 °F69 %29.94 in10.0 miCalmOvercast
10:45 PM69.8 °F60.8 °F73 %29.95 in10.0 miNNE (20°)4.6 mphOvercast
11:52 PM69.8 °F60.8 °F73 %29.94 in10.0 miNorth (10°)5.8 mphMostly Cloudy
Hourly data recorded from MMPR, located miles away from Las Gaviotas, Nayarit







STORIES FROM OUR PARTNERS